Content
SEND FEEDBACK

Daily
Averages
Monthly
Summary
United States of America

WHITE SANDS NATIONAL MONUMENT, NEW MEXICO


Home > North America > United States > New Mexico
Elevation: 4003 feet     Latitude: 32 47N     Longitude: 106 10W

WEATHER
 
SELECT A DAY
Number of Records: 252,132;   Date Range: 1/1/95 - 9/30/14
 
SHARE

PRINT THIS DATA

[ ← Previous Day ]
WEATHER ALMANAC - JANUARY 3, 2013
[ Next Day → ]
[ °C ]   °F
Weather ElementAverageHighLow
Temperature28.9 °F34.2 °F (12:58 pm)13.8 °F (4:58 am)
Dewpoint22.9 °F30.2 °F (11:03 pm)4.6 °F (4:58 am)
Humidity79.9 %100 % (8:08 pm)52 % (12:58 pm)
Barometer30.29 in30.36 in (9:58 am)30.19 in (1:58 am)
Wind Speed3 mph8.1 mph (9:58 am)
Weather ElementAverage
Visibility7.3 mi
Wind DirectionSSE (165.1 °)

Weather ElementTotal
Precipitation---
Heating Degree Days41 (Base 65)
Averaged from 59 records on January 3, 2013
WEATHER CONDITIONS BREAKOUT
WIND DIRECTION BREAKOUT
WEATHER BY HOUR - JANUARY 3, 2013
[ °C ]   °F
Local TimeTemperatureDewpointHumidityBarometerVisibilityWind DirectionWind SpeedGust SpeedPrecipitationEventsConditions
1:58 AM16.3 °F5.2 °F62 %30.19 in10.0 miCalmClear
2:58 AM15.1 °F4.8 °F64 %30.21 in10.0 miSSE (150°)4.6 mphClear
3:58 AM15.4 °F6.1 °F67 %30.22 in10.0 miCalmClear
4:58 AM13.8 °F4.6 °F67 %30.23 in10.0 miCalmPartly Cloudy
5:58 AM15.8 °F6.1 °F66 %30.25 in10.0 miCalmScattered Clouds
6:58 AM18.1 °F9.1 °F68 %30.28 in10.0 miCalmOvercast
7:58 AM20.7 °F9.7 °F63 %30.32 in10.0 miSSE (150°)5.8 mphOvercast
8:58 AM22.3 °F9.7 °F58 %30.34 in10.0 miSSE (150°)4.6 mphPartly Cloudy
9:58 AM26.1 °F12.9 °F58 %30.36 in10.0 miSouth (180°)8.1 mphScattered Clouds
10:58 AM30.6 °F16.2 °F55 %30.35 in10.0 miWest (270°)4.6 mphOvercast
11:58 AM32.7 °F17.4 °F53 %30.32 in10.0 miWNW (300°)3.5 mphScattered Clouds
12:58 PM34.2 °F18.3 °F52 %30.30 in10.0 miWNW (300°)3.5 mphClear
1:58 PM33.8 °F19.4 °F56 %30.29 in10.0 miWest (270°)8.1 mphSnowLight Snow
1:59 PM33.8 °F19.4 °F56 %30.25 in10.0 miWest (260°)5.8 mphSnowLight Snow
2:01 PM33.8 °F19.4 °F56 %30.25 in10.0 miWest (270°)8.1 mphClear
2:04 PM33.8 °F19.4 °F56 %30.25 in10.0 miWest (260°)4.6 mphSnowLight Snow
2:05 PM33.8 °F19.4 °F56 %30.25 in10.0 miWest (280°)2.3 mphClear
2:25 PM33.8 °F21.2 °F60 %30.25 in8.0 miWest (280°)3.5 mphClear
2:36 PM32.0 °F21.2 °F64 %30.25 in8.0 miWNW (300°)4.6 mphClear
2:37 PM32.0 °F21.2 °F64 %30.25 in8.0 miWNW (300°)3.5 mphClear
2:58 PM32.9 °F22.5 °F65 %30.32 in9.0 miNW (320°)5.8 mph0.00 inClear
3:01 PM32.0 °F23.0 °F69 %30.25 in9.0 miNW (320°)3.5 mphClear
3:58 PM32.5 °F22.8 °F67 %30.30 in10.0 miNorth (350°)5.8 mph0.00 inClear
4:04 PM32.0 °F23.0 °F69 %30.25 in7.0 miNNW (330°)4.6 mphClear
4:19 PM32.0 °F23.0 °F69 %30.25 in9.0 miNW (320°)1.2 mphClear
4:58 PM32.4 °F23.5 °F70 %30.32 in9.0 miSouth (190°)3.5 mph0.00 inClear
5:13 PM32.0 °F24.8 °F75 %30.26 in4.0 miSouth (170°)4.6 mphClear
5:23 PM32.0 °F24.8 °F75 %30.26 in2.5 miSouth (180°)4.6 mphClear
5:28 PM32.0 °F24.8 °F75 %30.26 in3.0 miSouth (170°)4.6 mphClear
5:33 PM30.2 °F26.6 °F86 %30.26 in6.0 miSouth (180°)4.6 mphClear
5:48 PM30.2 °F26.6 °F86 %30.27 in8.0 miSouth (190°)5.8 mphClear
5:58 PM29.8 °F26.8 °F88 %30.34 in7.0 miSSW (200°)3.5 mph0.00 inClear
6:23 PM30.2 °F26.6 °F86 %30.28 in10.0 miSouth (180°)4.6 mphPartly Cloudy
6:53 PM30.2 °F28.4 °F93 %30.28 in10.0 miSouth (190°)3.5 mphPartly Cloudy
6:58 PM29.7 °F27.7 °F92 %30.34 in9.0 miSSW (200°)3.5 mphPartly Cloudy
7:01 PM30.2 °F28.4 °F93 %30.29 in9.0 miSSW (200°)4.6 mphPartly Cloudy
7:58 PM29.5 °F28.0 °F94 %30.35 in7.0 miSouth (190°)3.5 mph0.00 inSnowLight Snow
8:03 PM30.2 °F28.4 °F93 %30.30 in8.0 miSouth (180°)2.3 mphSnowLight Snow
8:08 PM28.4 °F28.4 °F100 %30.30 in7.0 miSouth (180°)1.2 mphMostly Cloudy
8:28 PM28.4 °F28.4 °F100 %30.29 in9.0 miSSW (200°)2.3 mphMostly Cloudy
8:45 PM28.4 °F28.4 °F100 %30.30 in5.0 miSSW (200°)3.5 mphPartly Cloudy
8:50 PM28.4 °F28.4 °F100 %30.30 in5.0 miSSW (200°)3.5 mphPartly Cloudy
8:58 PM29.3 °F28.6 °F97 %30.35 in4.0 miSSW (200°)2.3 mph0.00 inClear
9:16 PM28.4 °F28.4 °F100 %30.30 in4.0 miCalmPartly Cloudy
9:22 PM28.4 °F28.4 °F100 %30.30 in4.0 miCalmScattered Clouds
9:37 PM28.4 °F28.4 °F100 %30.31 in3.0 miSouth (180°)1.2 mphSnowLight Snow
9:52 PM28.4 °F28.4 °F100 %30.31 in3.0 miCalmScattered Clouds
9:58 PM29.3 °F29.1 °F99 %30.35 in3.0 miCalm0.00 inMostly Cloudy
10:36 PM30.2 °F28.4 °F93 %30.32 in4.0 miCalmOvercast
10:46 PM30.2 °F28.4 °F93 %30.32 in5.0 miCalmOvercast
10:51 PM30.2 °F28.4 °F93 %30.32 in5.0 miCalmOvercast
10:58 PM29.5 °F29.3 °F99 %30.34 in5.0 miCalm0.00 inOvercast
11:03 PM30.2 °F30.2 °F100 %30.32 in5.0 miCalmOvercast
11:08 PM30.2 °F30.2 °F100 %30.32 in5.0 miCalmOvercast
11:09 PM30.2 °F30.2 °F100 %30.32 in5.0 miCalmOvercast
11:39 PM30.2 °F30.2 °F100 %30.32 in5.0 miSSW (200°)3.5 mphOvercast
11:41 PM30.2 °F30.2 °F100 %30.32 in5.0 miSouth (190°)3.5 mphOvercast
11:44 PM30.2 °F30.2 °F100 %30.31 in5.0 miSSW (200°)3.5 mphOvercast
11:58 PM30.2 °F28.4 °F93 %30.32 in5.0 miSSW (210°)4.6 mph0.00 inOvercast
Hourly data recorded from KHMN, located miles away from White Sands National Monument, New Mexico







STORIES FROM OUR PARTNERS